• In Uzbekistan
  • List of Countries
  • For 7 days
  • Water Temperature
  • Weather Map
  • Weather Widgets
  • user-avatar
    Login

    Hourly Weather Belize

    Today, 25 January, Saturday

    Time Temperature Precipitation Wind Pressure Humidity
    00:00 +21°C° 0 mm 3 mps 762 mmHg 98%
    01:00 +21°C° 0 mm 3 mps 762 mmHg 98%
    02:00 +20°C° 0 mm 3 mps 762 mmHg 98%
    03:00 +20°C° 0 mm 3 mps 761 mmHg 98%
    04:00 +20°C° 0.1 mm 3 mps 762 mmHg 98%
    05:00 +20°C° 0.1 mm 3 mps 762 mmHg 98%
    06:00 +20°C° 0.1 mm 3 mps 762 mmHg 98%
    07:00 +21°C° 0.1 mm 3 mps 763 mmHg 95%
    08:00 +24°C° 0.1 mm 3 mps 763 mmHg 92%
    09:00 +25°C° 0.1 mm 3 mps 764 mmHg 89%
    10:00 +26°C° 0.1 mm 3 mps 764 mmHg 85%
    11:00 +27°C° 0.1 mm 4 mps 763 mmHg 80%
    12:00 +27°C° 0.1 mm 4 mps 763 mmHg 76%
    13:00 +28°C° 0 mm 4 mps 762 mmHg 75%
    14:00 +28°C° 0 mm 4 mps 762 mmHg 73%
    15:00 +28°C° 0 mm 4 mps 761 mmHg 72%
    16:00 +26°C° 0 mm 4 mps 761 mmHg 77%
    17:00 +25°C° 0 mm 4 mps 761 mmHg 81%
    18:00 +22°C° 0 mm 4 mps 762 mmHg 85%
    19:00 +21°C° 0 mm 4 mps 762 mmHg 87%
    20:00 +21°C° 0 mm 4 mps 763 mmHg 90%
    21:00 +20°C° 0 mm 4 mps 763 mmHg 92%
    22:00 +20°C° 0 mm 3 mps 763 mmHg 93%
    23:00 +20°C° 0 mm 3 mps 763 mmHg 94%

    Tomorrow, 26 January, Sunday

    Time Temperature Precipitation Wind Pressure Humidity
    00:00 +19°C° 0 mm 3 mps 762 mmHg 95%
    01:00 +19°C° 0 mm 3 mps 762 mmHg 95%
    02:00 +19°C° 0 mm 3 mps 762 mmHg 96%
    03:00 +19°C° 0 mm 2 mps 761 mmHg 97%
    04:00 +19°C° 0 mm 2 mps 761 mmHg 97%
    05:00 +19°C° 0 mm 2 mps 761 mmHg 97%
    06:00 +19°C° 0 mm 2 mps 761 mmHg 97%
    07:00 +21°C° 0 mm 3 mps 762 mmHg 87%
    08:00 +24°C° 0 mm 3 mps 763 mmHg 77%
    09:00 +27°C° 0 mm 3 mps 763 mmHg 67%
    10:00 +28°C° 0 mm 3 mps 763 mmHg 63%
    11:00 +29°C° 0 mm 3 mps 762 mmHg 58%
    12:00 +30°C° 0 mm 3 mps 761 mmHg 53%
    13:00 +30°C° 0 mm 3 mps 761 mmHg 54%
    14:00 +29°C° 0 mm 3 mps 760 mmHg 55%
    15:00 +29°C° 0 mm 3 mps 759 mmHg 56%
    16:00 +27°C° 0 mm 3 mps 759 mmHg 65%
    17:00 +25°C° 0 mm 3 mps 759 mmHg 74%
    18:00 +22°C° 0 mm 3 mps 759 mmHg 83%
    19:00 +21°C° 0 mm 3 mps 760 mmHg 86%
    20:00 +21°C° 0 mm 3 mps 760 mmHg 89%
    21:00 +20°C° 0 mm 3 mps 760 mmHg 92%
    22:00 +20°C° 0 mm 3 mps 760 mmHg 93%
    23:00 +19°C° 0 mm 3 mps 760 mmHg 95%

    Day after tomorrow, 27 January, Monday

    Time Temperature Precipitation Wind Pressure Humidity
    00:00 +19°C° 0 mm 2 mps 760 mmHg 96%
    01:00 +19°C° 0 mm 2 mps 760 mmHg 96%
    02:00 +19°C° 0 mm 2 mps 759 mmHg 95%
    03:00 +19°C° 0 mm 2 mps 759 mmHg 95%
    04:00 +19°C° 0 mm 2 mps 759 mmHg 95%
    05:00 +19°C° 0 mm 2 mps 759 mmHg 96%
    06:00 +19°C° 0 mm 2 mps 760 mmHg 97%
    07:00 +21°C° 0 mm 2 mps 760 mmHg 88%
    08:00 +25°C° 0 mm 2 mps 761 mmHg 79%
    09:00 +27°C° 0 mm 3 mps 761 mmHg 70%
    10:00 +29°C° 0 mm 2 mps 761 mmHg 63%
    11:00 +31°C° 0 mm 2 mps 761 mmHg 55%
    12:00 +34°C° 0 mm 2 mps 760 mmHg 48%
    13:00 +34°C° 0 mm 2 mps 760 mmHg 50%
    14:00 +33°C° 0 mm 3 mps 759 mmHg 53%
    15:00 +31°C° 0 mm 3 mps 758 mmHg 55%
    16:00 +29°C° 0 mm 3 mps 758 mmHg 65%
    17:00 +27°C° 0 mm 3 mps 759 mmHg 76%
    18:00 +24°C° 0 mm 3 mps 759 mmHg 86%
    19:00 +24°C° 0 mm 3 mps 759 mmHg 88%
    20:00 +22°C° 0 mm 3 mps 759 mmHg 90%
    21:00 +22°C° 0 mm 4 mps 760 mmHg 92%
    22:00 +22°C° 0 mm 4 mps 760 mmHg 93%
    23:00 +22°C° 0 mm 4 mps 759 mmHg 94%

    28 January, Tuesday

    Time Temperature Precipitation Wind Pressure Humidity
    00:00 +21°C° 0 mm 4 mps 759 mmHg 95%
    01:00 +21°C° 0 mm 4 mps 759 mmHg 96%
    02:00 +21°C° 0 mm 4 mps 758 mmHg 97%
    03:00 +21°C° 0 mm 4 mps 758 mmHg 98%
    04:00 +21°C° 0 mm 3 mps 758 mmHg 98%
    05:00 +20°C° 0 mm 3 mps 758 mmHg 98%
    06:00 +20°C° 0 mm 3 mps 759 mmHg 98%
    07:00 +22°C° 0 mm 3 mps 759 mmHg 90%
    08:00 +25°C° 0 mm 2 mps 759 mmHg 81%
    09:00 +28°C° 0 mm 2 mps 760 mmHg 72%
    10:00 +29°C° 0 mm 2 mps 759 mmHg 67%
    11:00 +30°C° 0 mm 3 mps 759 mmHg 61%
    12:00 +33°C° 0 mm 3 mps 758 mmHg 56%
    13:00 +31°C° 0 mm 3 mps 758 mmHg 57%
    14:00 +31°C° 0 mm 3 mps 757 mmHg 58%
    15:00 +31°C° 0 mm 3 mps 757 mmHg 59%
    16:00 +29°C° 0 mm 3 mps 757 mmHg 68%
    17:00 +27°C° 0 mm 3 mps 757 mmHg 78%
    18:00 +25°C° 0 mm 3 mps 757 mmHg 87%
    19:00 +24°C° 0 mm 3 mps 758 mmHg 91%
    20:00 +22°C° 0 mm 4 mps 758 mmHg 94%
    21:00 +22°C° 0 mm 4 mps 758 mmHg 98%
    22:00 +22°C° 0 mm 4 mps 758 mmHg 98%
    23:00 +22°C° 0 mm 4 mps 758 mmHg 98%

    29 January, Wednesday

    Time Temperature Precipitation Wind Pressure Humidity
    00:00 +22°C° 0 mm 4 mps 758 mmHg 99%
    01:00 +22°C° 0 mm 4 mps 758 mmHg 99%
    02:00 +22°C° 0 mm 3 mps 758 mmHg 98%
    03:00 +22°C° 0 mm 3 mps 757 mmHg 98%
    04:00 +22°C° 0 mm 3 mps 758 mmHg 98%
    05:00 +23°C° 0 mm 2 mps 758 mmHg 99%
    06:00 +23°C° 0 mm 2 mps 758 mmHg 99%
    07:00 +25°C° 0 mm 2 mps 759 mmHg 91%
    08:00 +27°C° 0 mm 2 mps 759 mmHg 83%
    09:00 +29°C° 0 mm 2 mps 760 mmHg 75%
    10:00 +31°C° 0 mm 1 mps 760 mmHg 67%
    11:00 +33°C° 0 mm 1 mps 759 mmHg 58%
    12:00 +34°C° 0 mm 1 mps 759 mmHg 50%
    13:00 +35°C° 0 mm 2 mps 758 mmHg 53%
    14:00 +34°C° 0 mm 2 mps 758 mmHg 57%
    15:00 +33°C° 0 mm 3 mps 757 mmHg 61%
    16:00 +30°C° 0 mm 3 mps 757 mmHg 70%
    17:00 +28°C° 0 mm 3 mps 758 mmHg 79%
    18:00 +26°C° 0 mm 3 mps 758 mmHg 88%
    19:00 +25°C° 0 mm 3 mps 758 mmHg 91%
    20:00 +24°C° 0 mm 3 mps 759 mmHg 95%
    21:00 +24°C° 0 mm 3 mps 759 mmHg 98%
    22:00 +24°C° 0.8 mm 3 mps 759 mmHg 98%
    23:00 +24°C° 0.8 mm 2 mps 759 mmHg 98%

    30 January, Thursday

    Time Temperature Precipitation Wind Pressure Humidity
    00:00 +23°C° 0.8 mm 2 mps 759 mmHg 98%
    01:00 +23°C° 0.6 mm 2 mps 759 mmHg 98%
    02:00 +23°C° 0.6 mm 1 mps 759 mmHg 98%
    03:00 +23°C° 0.6 mm 1 mps 758 mmHg 98%
    04:00 +23°C° 0.2 mm 1 mps 759 mmHg 98%
    05:00 +23°C° 0.2 mm 1 mps 759 mmHg 99%
    06:00 +23°C° 0.2 mm 2 mps 759 mmHg 99%
    07:00 +24°C° 0.1 mm 2 mps 760 mmHg 96%
    08:00 +25°C° 0.1 mm 2 mps 760 mmHg 93%
    09:00 +26°C° 0.1 mm 2 mps 761 mmHg 90%
    10:00 +28°C° 0 mm 2 mps 760 mmHg 80%
    11:00 +30°C° 0 mm 2 mps 760 mmHg 71%
    12:00 +32°C° 0 mm 2 mps 759 mmHg 61%
    13:00 +31°C° 0 mm 2 mps 759 mmHg 62%
    14:00 +31°C° 0 mm 3 mps 758 mmHg 62%
    15:00 +30°C° 0 mm 3 mps 757 mmHg 63%
    16:00 +29°C° 0 mm 3 mps 757 mmHg 71%
    17:00 +27°C° 0 mm 3 mps 757 mmHg 79%
    18:00 +25°C° 0 mm 3 mps 758 mmHg 86%
    19:00 +25°C° 0 mm 4 mps 758 mmHg 90%
    20:00 +23°C° 0 mm 4 mps 758 mmHg 93%
    21:00 +23°C° 0 mm 4 mps 759 mmHg 96%
    22:00 +23°C° 0 mm 4 mps 759 mmHg 97%
    23:00 +23°C° 0 mm 4 mps 759 mmHg 97%
    Show more